Location: Casteau
(50.5142°N, 4.0161°E)
Time: 23:57:24
(UTC+00:00)

Tiros 1 - Pass Details

Date: 31 July 2021
Orbit: 630 x 663 km, 48.4° (Epoch: 16 September)

Event Time Altitude Azimuth Distance (km) Brightness Sun altitude
Rises 22:42:50 0° 280° (W) 2,966 10.9 -19.9°
Reaches altitude 10° 22:45:17 10° 273° (W) 2,048 9.9 -20.0°
Enters shadow 22:49:38 41° 206° (SSW) 927 7.6 -20.2°
Maximum altitude 22:49:42 41° 204° (SSW) 927 - -20.2°
Drops below altitude 10° 22:54:05 10° 134° (SE) 2,021 - -20.4°
Sets 22:56:29 0° 127° (SE) 2,923 - -20.4°
